User: anonymous   Login
Location: Unspecified
(0.0000°N, 0.0000°E)
Time: 13:05:51
(UTC+02:00)
Language:

Ariane 42L R/B - Orbit

View from above orbital plane
View from above orbital plane
View from above satellite
View from above satellite

Ground track
Ground track

The orbit data is extracted from the following two-line orbital elements,

1 26299U 00020B   18144.89693236  .00007047  00000-0  89241-3 0  9999
2 26299   7.5579  10.9031 5952133  89.5953 334.0465  4.13550074233196
Epoch (UTC): 24 May 2018 21:31:34
Eccentricity: 0.5952133
inclination: 7.5579°
perigee height: 258 km
apogee height: 19775 km
right ascension of ascending node: 10.9031°
argument of perigee: 89.5953°
revolutions per day: 4.13550074
mean anomaly at epoch: 334.0465°
orbit number at epoch: 23319

The dashed part of the orbit path shows where the satellite is in the earth's shadow,  

DLR